x

8658163 - Johnny Mercer Pier, Wrightsville Beach, Nc (jmpn7) Weather Station

7:54am - Thu 28th May 2015 All times are EDT. -4 hours from GMT.

  • Wind
    7mph, 9mph gusts
  • Sea Temp 78°f
  • Air Temp 75°f
  • Sea Pressure 1023.7mb
  • 8658163 - Johnny Mercer Pier, Wrightsville Beach, Nc
  • 8658163 - Johnny Mercer Pier, Wrightsville Beach, Nc

More Historic Weather Station data

Upgrade to MSW Pro to gain access to the past 30 days of data for over 8000 Wavebouys and Weather Stations around the globe.

Join Pro

Comparision Forecast

View Surf forecast
   
Thu 05/28 7:54am 7 9 mph 1023.7mb 78f 75f
7:48am 8 9 mph 1023.6mb 78f 75f
7:42am 7 8 mph 1023.6mb 78f 75f
7:36am 7 9 mph 1023.6mb 78f 74f
7:30am 7 8 mph 1023.5mb 78f 74f
7:24am 6 8 mph 1023.5mb 78f 74f
7:18am 8 9 mph 1023.4mb 78f 74f
7:12am 7 9 mph 1023.4mb 78f 74f
7:06am 8 9 mph 1023.4mb 78f 74f
7:00am 6 9 mph 1023.3mb 78f 74f
6:54am 8 9 mph 1023.3mb 78f 74f
6:48am 7 9 mph 1023.2mb 78f 74f
6:42am 8 9 mph 1023.2mb 78f 74f
6:36am 8 9 mph 1023.2mb 78f 74f
6:30am 8 10 mph 1023.1mb - 74f
6:24am 8 10 mph 1023.1mb - 74f
6:18am 8 9 mph 1022.9mb 78f 74f
6:12am 8 10 mph 1022.7mb 78f 74f
6:06am 9 10 mph 1022.6mb 78f 74f
6:00am 9 10 mph 1022.6mb 78f 74f
5:54am 9 11 mph 1022.6mb 78f 74f
5:48am 8 11 mph 1022.5mb 78f 74f
5:42am 8 10 mph 1022.5mb 78f 74f
5:36am 8 10 mph 1022.5mb 78f 74f
5:30am 10 11 mph 1022.4mb 78f 74f
5:24am 8 10 mph 1022.3mb 78f 74f
5:18am 8 10 mph 1022.3mb 78f 74f
5:12am 8 10 mph 1022.3mb 78f 74f
5:06am 9 10 mph 1022.3mb 78f 74f
5:00am 9 10 mph 1022.3mb 78f 74f
4:54am 8 10 mph 1022.3mb 78f 74f
4:48am 8 10 mph 1022.3mb 78f 74f
4:42am 8 10 mph 1022.3mb 78f 74f
4:36am 8 10 mph 1022.2mb 78f 74f
4:30am 8 10 mph 1022.2mb 78f 74f
4:24am 8 10 mph 1022.2mb 78f 74f
4:18am 9
mph
1022.2mb 78f 74f
4:12am 8 10 mph 1022.3mb 78f 74f
4:06am 9 11 mph 1022.2mb 78f 74f
4:00am 8 9 mph 1022.2mb 78f 74f
3:54am 8 10 mph 1022.2mb 78f 74f
3:48am 8 9 mph 1022.3mb 78f 74f
3:42am 8 9 mph 1022.4mb 78f 74f
3:36am 8 10 mph 1022.5mb 78f 74f
3:30am 8 9 mph 1022.5mb 78f 74f
3:24am 8 10 mph 1022.6mb 78f 74f
3:18am 8 9 mph - 78f 74f
3:12am 8 10 mph - 78f 74f
3:06am 9 10 mph - 78f 74f
3:00am 9 11 mph 1022.6mb 78f 74f
2:54am 9 10 mph 1022.6mb 78f 74f
2:48am 9 10 mph 1022.7mb 78f 74f
2:42am 9 10 mph 1022.8mb 78f 74f
2:36am 8 9 mph 1022.8mb 78f 74f
2:30am 8 10 mph 1022.9mb 78f 74f
2:24am 8 10 mph 1023mb 78f 74f
2:18am 9 11 mph 1022.9mb 78f 74f
2:12am 8 10 mph 1023mb 78f 74f
2:06am 9 10 mph 1023.1mb 78f 74f
2:00am 10 11 mph 1023mb 78f 74f
1:54am 10 11 mph 1023.1mb 78f 75f
1:48am 9 11 mph 1023.1mb 78f 75f
1:42am 10 11 mph 1023.1mb 78f 74f
1:36am 10
mph
1023.1mb 78f 74f
1:30am 9 11 mph 1023.1mb 78f 75f
1:24am 10 11 mph 1023.1mb 78f 75f
1:18am 13
mph
1023.1mb 78f 74f
1:12am 10 13 mph 1023.1mb 78f 75f
1:06am 11 13 mph 1023.1mb 78f 75f
1:00am 13 14 mph 1023.1mb 78f 75f
12:54am 13 14 mph 1023.1mb 78f 75f
12:48am 11 13 mph 1023.2mb 78f 75f
12:42am 11 14 mph 1023.2mb 78f 75f
12:36am 13 14 mph 1023.3mb 78f 75f
12:30am 11 14 mph 1023.2mb 78f 75f
12:24am 11 13 mph 1023.3mb 78f 75f
12:18am 11 14 mph 1023.2mb 78f 75f
12:12am 10 13 mph 1023.2mb 78f 75f
12:06am 10 13 mph 1023.3mb 78f 75f
12:00am 10 13 mph 1023.4mb 78f 75f
Wed 05/27 11:54pm 10 13 mph 1023.5mb 78f 75f
11:48pm 11 14 mph 1023.5mb 78f 75f
11:42pm 10 11 mph 1023.5mb 78f 75f
11:36pm 11 13 mph 1023.7mb 78f 75f
11:30pm 9 11 mph 1023.6mb 78f 75f
11:24pm 10 11 mph 1023.7mb 78f 75f
11:18pm 9 11 mph 1023.7mb 78f 75f
11:12pm 10 13 mph 1023.6mb 78f 75f
11:06pm 10 13 mph 1023.6mb 78f 75f
11:00pm 11 13 mph 1023.6mb 78f 75f
10:54pm 11 13 mph 1023.6mb 79f 75f
10:48pm 11 14 mph 1023.7mb 79f 75f
10:42pm 10 13 mph 1023.7mb 79f 75f
10:36pm 11 13 mph 1023.8mb 79f 75f
10:30pm 11 13 mph 1023.7mb 79f 75f
10:24pm 10 13 mph 1023.7mb 79f 75f
10:18pm 11 14 mph 1023.6mb 79f 75f
10:12pm 11 14 mph 1023.6mb 79f 75f
10:06pm 11 15 mph 1023.7mb 79f 75f
10:00pm 13 14 mph 1023.5mb 79f 75f
9:54pm 13 15 mph 1023.4mb 79f 75f
9:48pm 14 15 mph 1023.3mb 79f 75f
9:42pm 14 16 mph 1023.3mb 79f 75f
9:36pm 14 15 mph 1023.2mb 79f 75f
9:30pm 15 16 mph 1023.1mb 79f 75f
9:24pm 15 16 mph 1023.1mb 79f 75f
9:18pm 15 16 mph 1023.1mb 79f 75f
9:12pm 15 16 mph 1023.1mb 79f 75f
9:06pm 15 17 mph 1023mb 79f 75f
9:00pm 15 16 mph 1022.9mb 79f 75f
8:54pm 16 18 mph 1022.9mb 79f 75f
8:48pm 15 17 mph 1022.9mb 79f 75f
8:42pm 16 17 mph 1022.9mb 79f 75f
8:36pm 17 18 mph 1022.8mb 79f 75f
8:30pm 16 18 mph 1022.8mb 79f 75f
8:24pm 16 18 mph 1022.8mb 79f 75f
8:18pm 18 20 mph 1022.8mb 79f 75f
8:12pm 17 18 mph 1022.9mb 80f 75f
8:06pm 16 18 mph 1022.9mb 80f 75f
8:00pm 16 20 mph 1022.8mb 80f 75f
7:54pm 17 20 mph 1022.8mb 80f 75f
7:48pm 17 20 mph 1022.7mb 80f 76f
7:42pm 17 18 mph 1022.9mb 80f 76f
7:36pm 17 21 mph 1023mb 80f 76f
7:30pm 16 20 mph 1022.9mb 80f 76f
7:24pm 17 18 mph 1022.8mb 80f 76f
7:18pm 16 18 mph 1022.7mb 80f 76f
7:12pm 16 18 mph 1022.7mb 80f 76f
7:06pm 15 17 mph 1022.7mb 80f 76f
7:00pm 15 18 mph 1022.7mb 80f 76f
6:00pm 17 18 mph 1022.9mb 80f 77f
5:30pm 18 20 mph 1022.9mb 80f 77f
5:24pm 18 20 mph 1023mb 80f 77f
5:18pm 17 20 mph 1023mb 80f 77f
5:12pm 17 20 mph 1023mb 80f 77f
5:06pm 18 20 mph 1023.1mb 79f 77f
5:00pm 17 20 mph 1023.1mb 79f 77f
4:48pm 16 18 mph 1023.1mb 79f 77f
4:42pm 16 20 mph 1023mb 79f 77f
4:36pm 18 21 mph 1023mb 79f 77f
4:30pm 18 20 mph 1023.1mb 79f 77f
4:24pm 18 21 mph 1023.2mb 79f 77f
4:18pm 17 20 mph 1023.1mb 79f 77f
4:12pm 16 20 mph 1023.3mb 79f 77f
4:06pm 16 20 mph 1023.3mb 79f 77f
4:00pm 18 21 mph 1023.3mb 79f 77f
3:54pm 17 20 mph 1023.4mb 79f 77f
3:48pm 18 20 mph 1023.5mb 79f 77f
3:42pm 17 18 mph 1023.6mb 79f 77f
3:36pm 16 17 mph 1023.7mb 79f 77f
3:30pm 16 18 mph 1023.7mb 79f 77f
3:24pm 15 18 mph 1023.7mb 79f 77f
3:18pm 16 17 mph 1023.6mb 79f 77f
3:12pm 16 18 mph 1023.6mb 79f 77f
3:06pm 15 17 mph 1023.6mb 79f 77f
3:00pm 15 17 mph 1023.6mb 79f 77f
2:54pm 16 18 mph 1023.6mb 79f 77f
2:48pm 15 17 mph 1023.6mb 79f 77f
2:42pm 15 17 mph 1023.8mb 79f 77f
2:36pm 15 17 mph 1023.8mb 79f 77f
2:30pm 15 16 mph 1023.8mb 79f 77f
2:24pm 15 16 mph 1023.8mb 79f 77f
2:18pm 15 16 mph 1024mb 79f 77f
2:12pm 15 17 mph 1024.1mb 79f 77f
2:06pm 15 16 mph 1024.2mb 79f 77f
2:00pm 15 16 mph 1024.2mb 79f 77f
1:54pm 15 16 mph 1024.4mb 79f 77f
1:48pm 15 16 mph 1024.4mb 79f 77f
1:42pm 15 16 mph 1024.4mb 79f 77f
1:36pm 15 16 mph 1024.4mb 79f 77f
1:30pm 14 16 mph 1024.4mb 79f 77f
1:24pm 14 16 mph 1024.5mb 79f 77f
1:18pm 15 17 mph 1024.4mb 79f 77f
1:12pm 16 18 mph 1024.5mb 79f 76f
1:06pm 16 17 mph 1024.5mb 79f 77f
1:00pm 15 16 mph 1024.6mb 79f 77f
12:54pm 15 16 mph 1024.7mb 79f 77f
12:48pm 15 17 mph 1024.7mb 79f 77f
12:42pm 15 17 mph 1024.7mb 79f 77f
12:36pm 15 17 mph 1024.8mb 78f 77f
12:30pm 14 17 mph 1024.8mb 78f 77f
12:24pm 16 17 mph 1024.7mb 78f 77f
12:18pm 16 17 mph 1024.7mb 78f 77f
12:12pm 16
mph
1024.7mb 78f 76f
12:06pm 14 16 mph 1024.8mb 78f 76f
12:00pm 16 17 mph 1024.7mb 78f 77f
11:54am 14 16 mph 1024.8mb 78f 77f
11:48am 14 16 mph 1024.8mb 78f 77f
11:42am 14 16 mph 1024.9mb 78f 77f
11:36am 15 16 mph 1024.9mb 78f 77f
11:30am 14 15 mph 1024.9mb 78f 77f
11:24am 14 15 mph 1024.9mb 78f 77f
11:18am 14
mph
1024.9mb 78f 77f
11:12am 13 14 mph 1024.8mb 78f 77f
11:06am 13 14 mph 1024.9mb 78f 77f
11:00am 13 14 mph 1024.9mb 78f 77f
10:54am 11 13 mph 1025mb 78f 77f
10:48am 11
mph
1025mb 78f 77f
10:42am 11
mph
1025mb 78f 77f
10:36am 11
mph
1025.1mb 78f 77f
10:30am 10 11 mph 1025.1mb 78f 78f
10:24am 10
mph
1025.1mb 78f 78f
10:18am 10
mph
1025.1mb 78f 77f
10:12am 9 10 mph 1025.1mb 78f 77f
10:06am 9 10 mph 1025.1mb 78f 77f
10:00am 9 10 mph 1025.1mb 78f 77f
9:54am 9 10 mph 1025.1mb 78f 77f
9:48am 9 10 mph 1025mb 78f 78f
9:42am 9 10 mph 1025mb 78f 78f
9:36am 9 10 mph 1025mb 78f 78f
9:30am 9 10 mph 1025.1mb 78f 78f
9:24am 9 10 mph 1025.1mb 77f 78f
9:18am 9 10 mph 1025mb 77f 78f
9:12am 8 10 mph 1025mb 77f 78f
9:06am 9 11 mph 1024.9mb 77f 77f
9:00am 10 11 mph 1024.8mb 77f 77f
8:54am 9 11 mph 1024.8mb 77f 77f
8:48am 10
mph
1024.8mb 77f 77f
8:42am 9 10 mph 1024.8mb 77f 77f
8:36am 10 11 mph 1024.6mb 77f 76f
8:30am 10 11 mph 1024.5mb 77f 76f
8:24am 9 11 mph 1024.4mb 77f 76f
8:18am 11 13 mph 1024.3mb 77f 76f
8:12am 11 13 mph 1024.2mb 77f 76f
8:06am 11 13 mph 1024.2mb 77f 76f
8:00am 11 13 mph 1024.1mb 77f 76f
7:54am 11 13 mph 1024mb 77f 76f
7:48am 11 13 mph 1024mb 77f 76f
7:42am 10 11 mph 1023.9mb 77f 76f
7:36am 10 11 mph 1023.9mb 77f 76f
7:30am 10 13 mph 1023.8mb 77f 76f
7:24am 11
mph
1023.7mb 77f 76f
7:18am 11 13 mph 1023.6mb 77f 76f
7:12am 11 13 mph 1023.7mb 77f 76f
7:06am 11 13 mph 1023.7mb 77f 76f
7:00am 11 13 mph 1023.7mb 77f 76f
6:54am 10 11 mph 1023.7mb 77f 76f
6:48am 11 13 mph 1023.7mb 77f 76f
6:42am 11 13 mph 1023.6mb 77f 76f
6:36am 11 13 mph 1023.6mb 77f 76f
6:30am 11 13 mph 1023.5mb 77f 76f
6:24am 10 13 mph 1023.5mb 77f 76f
6:18am 11 13 mph 1023.5mb 77f 76f
6:12am 11 13 mph 1023.4mb 77f 76f
6:06am 11 13 mph 1023.4mb 78f 76f
6:00am 11 13 mph 1023.4mb 78f 76f
5:54am 11
mph
1023.3mb 77f 76f
5:48am 10 11 mph 1023.2mb 77f 75f
5:42am 11 13 mph - - -
5:36am 10 13 mph - - -
5:30am 9 10 mph 1023.1mb 77f 76f
5:24am 9 11 mph 1023.1mb 77f 76f
5:18am  -  mph 1023.1mb 77f 76f
5:12am  -  mph 1023mb 77f 76f
5:06am  -  mph 1023mb 77f 75f
5:00am 9 10 mph 1023mb 77f 75f
4:54am 7 8 mph 1023mb 77f 75f
4:48am 7 8 mph 1023.1mb 77f 75f
4:42am 7 9 mph 1023.1mb 78f 75f
4:36am 8 9 mph 1023.1mb 77f 75f
4:30am 7 8 mph 1023mb 77f 75f
4:24am 7 8 mph 1023mb 77f 75f
4:18am 6 7 mph 1023mb 78f 75f
4:12am 6 7 mph 1023mb 78f 75f
4:06am 7 9 mph 1022.9mb 78f 75f
4:00am 8 9 mph 1023mb 78f 75f
3:54am 8 9 mph 1023mb 78f 75f
3:48am 8 9 mph 1023.1mb 78f 75f
3:42am 8 10 mph 1023.1mb 78f 75f
3:36am 8 9 mph 1023.1mb 78f 75f
3:30am  -  mph 1023.1mb 78f -
3:24am  -  mph 1023.2mb - -
3:18am  -  mph - 78f -
3:12am 13 15 mph 1023.2mb 78f -
3:06am 13 15 mph 1023.2mb 78f -
3:00am 13 15 mph 1023.3mb 78f -
2:54am 14 15 mph 1023.3mb 78f -
2:48am 13 16 mph 1023.3mb - -
2:42am 14 15 mph 1023.4mb - -
2:36am 11 13 mph 1023.5mb - -
2:30am 10 13 mph 1023.6mb 78f 75f
2:24am 11 14 mph 1023.7mb 78f 75f
2:18am 11 15 mph 1023.7mb 78f 75f
2:12am 15 17 mph 1023.7mb 78f 76f
2:06am 16 20 mph 1023.8mb 78f 76f
2:00am  -  mph - - 76f
1:54am  -  mph - - 76f
1:48am 17 20 mph 1023.8mb 78f 76f
1:42am 17 20 mph 1023.9mb 78f 76f
1:36am 16 18 mph 1023.9mb 78f 76f
1:30am 17 21 mph 1023.9mb 78f 76f
1:24am 17 20 mph 1024mb 78f 76f
1:18am 17 20 mph 1024mb 78f 76f
1:12am 18 20 mph 1024mb 78f 76f
1:06am 18 21 mph 1024.1mb 78f 76f
1:00am 18 21 mph 1024.2mb 78f 76f
12:54am 18 21 mph 1024.3mb 78f 76f
12:48am 17 21 mph 1024.5mb 78f 76f
12:42am 17 21 mph 1024.6mb 78f 76f
12:36am 20 22 mph 1024.6mb 78f 76f
12:30am 18 21 mph 1024.6mb 78f 76f
12:24am 20 22 mph 1024.7mb 78f 76f
12:18am 17 21 mph 1024.7mb 78f 76f
12:12am 18 21 mph 1024.6mb 78f 76f
12:06am 20 22 mph 1024.5mb 78f 76f
12:00am 18 21 mph 1024.4mb 78f 76f
Tue 05/26 11:54pm 20 22 mph 1024.5mb 78f 76f
11:48pm 20 22 mph 1024.5mb 78f 76f
11:42pm 20 23 mph 1024.6mb 78f 76f
11:36pm 18 20 mph 1024.6mb 78f 76f
11:30pm 17 21 mph 1024.6mb 78f 76f
11:24pm 21 23 mph 1024.6mb 78f 76f
11:18pm 21 22 mph 1024.7mb 78f 76f
11:12pm 17 22 mph 1024.8mb 78f 76f
11:06pm 20 22 mph 1024.8mb 78f 76f
11:00pm 20 21 mph 1024.8mb 78f 76f
10:54pm 20 22 mph 1024.8mb 78f 76f
10:48pm 21 22 mph 1024.9mb 78f 76f
10:42pm 20 22 mph 1024.9mb 78f 76f
10:36pm 20 22 mph 1024.8mb 78f 76f
10:30pm 20 22 mph 1024.8mb 78f 76f
10:24pm 20 22 mph 1024.7mb 79f 76f
10:18pm 21 23 mph 1024.5mb 79f 76f
10:12pm 22 24 mph 1024.3mb 79f 76f
10:06pm 18 23 mph 1024.2mb 79f 76f
10:00pm 21 23 mph 1024mb 79f 76f
9:54pm 20 23 mph 1023.9mb 79f 76f
9:48pm 22 24 mph 1023.8mb 79f 76f
9:42pm 22 23 mph 1023.9mb 79f 76f
9:36pm 21 23 mph 1024mb 79f 76f
9:30pm 20 23 mph 1024mb 79f 76f
9:24pm 20 23 mph 1023.9mb 79f 76f
9:18pm 20 23 mph 1023.8mb 79f 76f
9:12pm 18 22 mph 1024mb 79f 76f
9:06pm 20 23 mph 1024mb 79f 76f
9:00pm 20 22 mph 1024.1mb 79f 76f
8:54pm 21 23 mph 1024.1mb 79f 76f
8:48pm 21 23 mph 1024.1mb 79f 76f
8:42pm 20 22 mph 1024.1mb 79f 76f
8:36pm 20 22 mph 1024mb 79f 76f
8:30pm 20 22 mph 1024mb 79f 76f
8:24pm 18 22 mph 1023.9mb 79f 76f
8:18pm 20 22 mph 1024mb 79f 76f
8:12pm 20 22 mph 1024mb 79f 76f
8:06pm 20 23 mph 1023.9mb 79f 76f
8:00pm 20 23 mph 1023.9mb 79f 76f
7:54pm 21 23 mph 1023.9mb 79f 76f
7:48pm 21 22 mph 1023.9mb 79f 76f
7:42pm 21 22 mph 1023.9mb 79f 76f
7:36pm 20 22 mph 1023.9mb 79f 76f
7:30pm 20 22 mph 1023.8mb 79f 76f
7:24pm 18 22 mph 1023.8mb 79f 76f
7:18pm 20 22 mph 1023.7mb 79f 76f
7:12pm 20 22 mph 1023.7mb 79f 76f
7:06pm 21 23 mph 1023.6mb 79f 76f
7:00pm 22 23 mph 1023.6mb 79f 76f
6:54pm 22 23 mph 1023.5mb 79f 76f
6:48pm 21 23 mph 1023.5mb 79f 76f
6:42pm 22 24 mph 1023.5mb 79f 76f
6:36pm 20 22 mph 1023.5mb 79f 76f
6:30pm 21 24 mph 1023.6mb 79f 76f
6:24pm 22 24 mph 1023.5mb 79f 76f
6:18pm 21 24 mph 1023.6mb 79f -
6:12pm 21 24 mph 1023.6mb 79f 76f
6:06pm 21 24 mph 1023.6mb 79f 76f
6:00pm 22 24 mph 1023.6mb 79f 76f
5:54pm 22 24 mph 1023.6mb 79f 76f
5:48pm 22 24 mph 1023.7mb 79f 76f
5:42pm 22 23 mph 1023.7mb 79f 76f
5:36pm 22 24 mph 1023.8mb 79f 76f
5:30pm 21 23 mph 1023.7mb 79f 76f
5:24pm 20 23 mph 1023.8mb 79f 76f
5:18pm 23 25 mph 1023.6mb 79f 76f
5:12pm 22 24 mph 1023.6mb 79f 76f
5:06pm 21 23 mph 1023.6mb 79f 76f
5:00pm 20 24 mph 1023.7mb 79f 76f
4:54pm 22 23 mph 1023.7mb 79f 76f
4:48pm 22 24 mph 1023.8mb 79f 77f
4:42pm 20 23 mph 1023.9mb 79f 77f
4:36pm 20 22 mph 1024mb 79f 77f
4:30pm 20 22 mph 1024mb 79f 77f
4:24pm 20 22 mph 1024mb 79f 77f
4:18pm 21 23 mph 1024.1mb 79f 77f
4:12pm 20 22 mph 1024.2mb 79f 77f
4:06pm 21 22 mph 1024.3mb 79f 77f
4:00pm 20 22 mph 1024.4mb 79f 77f
3:54pm 21 22 mph 1024.4mb 79f 77f
3:48pm 21 22 mph 1024.4mb 79f 77f
3:42pm 20 22 mph 1024.4mb 79f 77f
3:36pm 18 21 mph 1024.4mb 79f 77f
3:30pm 21 22 mph 1024.6mb 79f 77f
3:24pm 20 22 mph 1024.7mb 79f 77f
3:18pm 20 22 mph 1024.6mb 79f 77f
3:12pm 18 21 mph 1024.7mb 78f 77f
3:06pm 18 21 mph 1024.7mb 78f 77f
3:00pm 18 21 mph 1024.8mb 78f 77f
2:54pm 17 20 mph 1024.8mb 78f 77f
2:48pm 16 20 mph 1024.8mb 78f 77f
2:42pm 17 21 mph 1024.9mb 78f 77f
2:36pm 16 20 mph 1024.9mb 78f 77f
2:30pm 16 20 mph 1025mb 78f 77f
2:24pm 15 20 mph 1025mb 78f 77f
2:18pm 16 18 mph 1025mb 78f 77f
2:12pm 16 18 mph 1025mb 78f 77f
2:06pm 17 18 mph 1025.1mb 78f 77f
2:00pm 16 18 mph 1025.2mb 78f 77f
1:54pm 15 18 mph 1025.3mb 78f 77f
1:48pm 16 18 mph 1025.3mb 78f 77f
1:30pm 16 20 mph 1025.4mb 78f 77f
1:24pm 16 20 mph 1025.4mb 78f 77f
1:18pm 17 20 mph 1025.4mb 78f 77f
1:12pm 16 17 mph 1025.5mb 78f 77f
1:06pm 15 17 mph 1025.6mb 78f 77f
1:00pm 15 17 mph 1025.6mb 78f 77f
12:54pm 15 17 mph 1025.7mb 78f 77f
12:48pm 14 16 mph 1025.8mb 78f 77f
12:42pm 15 16 mph 1025.8mb 78f 77f
12:36pm 15 16 mph 1025.8mb 78f 77f
12:30pm 15 16 mph 1025.8mb 78f 77f
12:24pm 15 17 mph 1025.8mb 78f 77f
12:18pm 14 17 mph 1025.8mb 78f 77f
12:12pm 15 16 mph 1025.9mb 78f 77f
12:06pm 14 17 mph 1025.9mb 78f 77f
12:00pm 14 16 mph 1025.9mb 78f 77f
11:54am 11 16 mph 1025.9mb 78f 77f
11:48am 14 15 mph 1026.1mb 77f 77f
11:42am 13 15 mph 1026.1mb 77f 77f
11:36am 14 15 mph 1026.1mb 77f 77f
11:30am 14 15 mph 1026.1mb 77f 77f
11:24am 14 15 mph 1026.2mb 77f 77f
11:18am 14
mph
1026.2mb 77f 77f
11:12am 14
mph
1026.1mb 77f 76f
11:06am 11 15 mph 1026.2mb 77f 76f
11:00am 13 15 mph 1026.2mb 77f 76f
10:54am 13 14 mph 1026.2mb 77f 76f
10:48am 11 14 mph 1026.2mb 77f 76f
10:42am 13 14 mph 1026.2mb 77f 76f
10:36am 11 14 mph 1026.2mb 77f 76f
10:30am 13 14 mph 1026.1mb 77f 76f
10:24am 13 14 mph 1026.1mb 77f 76f
10:18am 13 15 mph 1026mb 77f 76f
10:12am 11 13 mph 1026mb 77f 76f
10:06am 11 13 mph 1026.1mb 77f 76f
10:00am 11 13 mph 1026.1mb 77f 76f
9:54am 11 14 mph 1026.1mb 77f 76f
9:48am 11 14 mph 1026.1mb 77f 76f
9:42am 13 14 mph 1026.1mb 77f 76f
9:36am 14 15 mph 1026mb 77f 76f
9:30am 13 14 mph 1026.1mb 77f 76f
9:24am 13 14 mph 1026mb 77f 76f
9:18am 13 14 mph 1026mb 77f 76f
9:12am 13 14 mph 1026mb 77f 76f
9:06am 11
mph
1025.9mb 77f 76f
9:00am 10 13 mph 1025.9mb 77f 76f
8:54am 13 14 mph 1025.9mb 77f 76f
8:48am 11 13 mph 1025.9mb 77f 76f
8:42am 11 13 mph 1025.9mb 77f 76f
8:36am 11 13 mph 1025.9mb 77f 76f
8:30am 13 15 mph 1025.9mb 77f 76f
8:24am 14 15 mph 1025.8mb 77f 76f
8:18am 13 14 mph 1025.8mb 77f 75f
8:12am 13 15 mph 1025.7mb 77f 76f
8:06am 14 15 mph 1025.6mb 77f 76f
8:00am 14 15 mph 1025.5mb 77f 76f
7:54am 13 14 mph 1025.5mb 77f 75f
7:48am 13 15 mph 1025.5mb 77f 75f
7:42am 14 16 mph 1025.4mb 77f 75f
7:36am 14 15 mph 1025.3mb 77f 75f
7:30am 14 15 mph 1025.2mb 77f 75f
7:24am 14 15 mph 1025.1mb 77f 75f
7:18am 13 16 mph 1025mb 77f 75f
7:12am 13 15 mph 1025mb 77f 75f
7:06am 14 16 mph 1025.1mb 77f 75f
7:00am 14 16 mph 1025mb 77f 75f
6:54am 14 16 mph 1025mb 77f 75f
6:48am 15 16 mph 1024.9mb 77f 75f
6:42am 14 16 mph 1024.8mb 77f 75f
6:36am 15 16 mph 1024.7mb 77f 75f
6:30am 15 16 mph 1024.7mb 77f 75f
6:24am 15 16 mph 1024.6mb 77f 75f
6:18am 15 17 mph 1024.6mb 77f 75f
6:12am 14 16 mph 1024.4mb 77f 75f
6:06am 16 17 mph 1024.4mb 77f 75f
6:00am 16 17 mph 1024.3mb 77f 75f
5:54am 16 18 mph 1024.2mb 77f 75f
5:48am 15 17 mph 1024.1mb 77f 75f
5:42am 16 18 mph 1024mb 77f 75f
5:36am 17 18 mph 1023.9mb 77f 75f
5:30am 17 18 mph 1023.9mb 77f 75f
5:24am 18 20 mph 1023.9mb 77f 75f
5:18am 18 21 mph 1023.9mb 77f 75f
5:12am 18 20 mph 1024mb 77f 75f
5:06am 17 20 mph 1024mb 77f 75f
5:00am 17 18 mph 1024mb 77f 75f
4:54am 15 18 mph 1024.1mb 77f 75f
4:48am 15 17 mph 1024.1mb 77f 75f
4:42am 15 18 mph 1024.1mb 77f 74f
4:36am 15 16 mph 1024.1mb 77f 74f
4:30am 16 17 mph 1024.1mb 77f 74f
4:24am 16 18 mph 1024.1mb 77f 74f
4:18am 16 18 mph 1024.1mb 77f 75f
4:12am 16 17 mph 1024.1mb 77f 74f
4:06am 16 17 mph 1024.1mb 77f 74f
4:00am 15 17 mph 1024.2mb 77f 74f
3:54am 16 18 mph 1024.2mb 77f 74f
3:48am 15 18 mph 1024.1mb 77f 75f
3:42am 16 18 mph 1024.2mb 77f 74f
3:36am 17 18 mph 1024.2mb 77f 75f
3:30am 15 18 mph 1024.2mb 77f 75f
3:24am 16 18 mph 1024.2mb 77f 74f
3:18am 15 17 mph 1024.2mb 77f 75f
3:12am 17 18 mph 1024.2mb 77f 74f
3:06am 17 18 mph 1024.1mb 77f 75f
3:00am 17 20 mph 1024.1mb 77f 74f
2:54am 16 18 mph 1024.2mb 77f 75f
2:48am 15 18 mph - 77f 75f
2:42am 17 18 mph - 77f 75f
2:36am 16 18 mph - 77f 75f
2:30am 15 17 mph 1024.4mb 77f 74f
2:24am 17 18 mph 1024.4mb 77f 74f
2:18am 16 17 mph 1024.5mb 77f 74f
2:12am 16 18 mph 1024.5mb 77f 74f
2:06am 16 20 mph 1024.5mb 78f 74f
2:00am 17 20 mph 1024.5mb 78f 74f
1:54am 17 20 mph 1024.5mb 78f 74f
1:48am 17 20 mph 1024.6mb 78f 74f
1:42am 16 18 mph 1024.6mb 78f 74f
1:36am 16 18 mph 1024.6mb 78f 74f
1:30am 17 20 mph 1024.6mb 78f 75f
1:24am 17 21 mph 1024.6mb 78f 74f
1:18am 15 20 mph 1024.6mb 78f 75f
1:12am 16 18 mph 1024.7mb 78f 75f
1:06am 16 18 mph 1024.8mb 78f 74f
1:00am 16 20 mph 1024.9mb 78f 75f
12:54am 16 18 mph 1025mb 78f 75f
12:48am 17 20 mph 1025mb 78f 75f
12:42am 14 17 mph 1025mb 78f 75f
12:36am 15 17 mph 1025.1mb 77f 75f
12:30am 15 17 mph 1025.3mb 77f 75f
12:24am 15 17 mph 1025.4mb 77f 75f
12:18am 15 16 mph 1025.5mb 77f 75f
12:12am 14 16 mph 1025.6mb 77f 75f
12:06am 15 16 mph 1025.5mb 77f 75f
12:00am 14 15 mph 1025.5mb 77f 75f
Mon 05/25 11:54pm 13 15 mph 1025.5mb 77f 75f
11:48pm 13 15 mph 1025.5mb 77f 74f
11:42pm 13 15 mph 1025.6mb 77f 75f
11:36pm 14 15 mph 1025.5mb 77f 75f
11:30pm 11 15 mph 1025.6mb 77f 75f
11:24pm 13 14 mph 1025.7mb 77f 74f
11:18pm 13 14 mph 1025.7mb 77f 75f
11:12pm 13 14 mph 1025.7mb 77f 75f
11:06pm 13 15 mph 1025.7mb 77f 75f
11:00pm 13 15 mph 1025.8mb 77f 75f
10:54pm 14 15 mph 1025.7mb 77f 75f
10:48pm 11 14 mph 1025.8mb 77f 75f
10:42pm 11 14 mph 1025.8mb 77f 75f
10:36pm 11 14 mph 1025.7mb 77f 75f
10:30pm 11 14 mph 1025.7mb 77f 75f
10:24pm 10 14 mph 1025.7mb 77f 75f
10:18pm 11 14 mph 1025.7mb 77f 75f
10:12pm 11 14 mph 1025.6mb 77f 75f
10:06pm 13 14 mph 1025.5mb 77f 75f
10:00pm 11 14 mph 1025.5mb 77f 75f
9:54pm 13 14 mph 1025.5mb 77f 75f
9:48pm 11 14 mph 1025.5mb 77f 75f
9:42pm 11 14 mph 1025.4mb 77f 75f
9:36pm 11 14 mph 1025.4mb 77f 75f
9:30pm 11 14 mph 1025.4mb 77f 75f
9:24pm 11 14 mph 1025.3mb 77f 75f
9:18pm 10 13 mph 1025.4mb 77f 75f
9:12pm 11 13 mph 1025.4mb 77f 75f
9:06pm 10 11 mph 1025.4mb 77f 75f
9:00pm 10 11 mph 1025.4mb 77f 75f
8:54pm 11 14 mph 1025.3mb 77f 75f
8:48pm 11 14 mph 1025.2mb 77f 75f
8:42pm 11 13 mph 1025.2mb 77f 75f
8:36pm 10 14 mph 1025.2mb 77f 75f
8:30pm 10 13 mph 1025.3mb 77f 75f
8:24pm 10 14 mph 1025.3mb 77f 75f
8:18pm 11 13 mph 1025.3mb 77f 75f
8:12pm 11 14 mph 1025.3mb 77f 75f
8:06pm 11 13 mph 1025.3mb 77f 75f
8:00pm 10 13 mph 1025.4mb 77f 75f
7:54pm 10 13 mph 1025.4mb 77f 75f
7:48pm 10 13 mph 1025.4mb 77f 75f
7:42pm 9 13 mph 1025.4mb 78f 75f
7:36pm 11 13 mph 1025.5mb 78f 75f
7:30pm 11 13 mph 1025.5mb 78f 75f
7:24pm 11 13 mph 1025.5mb 78f 75f
7:18pm 10 13 mph 1025.5mb 78f 75f
7:12pm 10 13 mph 1025.5mb 78f 75f
7:06pm 11 13 mph 1025.5mb 78f 76f
7:00pm 11 13 mph 1025.5mb 78f 75f
6:54pm 10 11 mph 1025.4mb 78f 75f
6:48pm 10 11 mph 1025.4mb 78f 76f
6:42pm 9 13 mph 1025.4mb 78f 75f
6:36pm 13 14 mph 1025.3mb 79f 76f
6:30pm 9 13 mph 1025.4mb 79f 76f
6:24pm 10 11 mph 1025.4mb 79f 76f
6:18pm 9 10 mph 1025.4mb 79f 76f
6:12pm 9 11 mph 1025.5mb 78f 76f
6:06pm 9 11 mph 1025.5mb 78f 76f
6:00pm 9 11 mph 1025.5mb 78f 76f
5:54pm 9 13 mph 1025.5mb 78f 75f
5:48pm 11 14 mph 1025.6mb 78f 76f
5:42pm 9 11 mph 1025.6mb 78f 75f
5:36pm 11 15 mph 1025.6mb 78f 76f
5:30pm 13 14 mph 1025.6mb 78f 75f
5:24pm 11 13 mph 1025.6mb 78f 76f
5:18pm 11 14 mph 1025.7mb 78f 75f
5:12pm 11 14 mph 1025.6mb 78f 75f
5:06pm 10 13 mph 1025.6mb 78f 75f
5:00pm 9 13 mph 1025.6mb 78f 75f
4:54pm 11 14 mph 1025.6mb 77f 75f
4:48pm 11 14 mph 1025.7mb 77f 75f
4:42pm 11 14 mph 1025.7mb 77f 75f
4:36pm 11 13 mph 1025.7mb 77f 75f
4:30pm 13 14 mph 1025.7mb 77f 75f
4:24pm 13 14 mph 1025.8mb 77f 75f
4:18pm 11 14 mph 1025.8mb 77f 75f
4:12pm 14 16 mph 1025.8mb 77f 75f
4:06pm 14 15 mph 1025.8mb 77f 75f
4:00pm 13 15 mph 1025.8mb 77f 75f
3:54pm 11 14 mph 1025.8mb 77f 75f
3:48pm 11 13 mph 1025.9mb 77f 75f
3:42pm 10 13 mph 1026mb 77f 75f
3:36pm 13 14 mph 1026mb 77f 75f
3:30pm 10 14 mph 1026mb 77f 75f
3:24pm 11 13 mph 1026.1mb 77f 75f
3:18pm 11 13 mph 1026.1mb 77f 75f
3:12pm 10 13 mph 1026.2mb 77f 75f
3:06pm 10 13 mph 1026.2mb 77f 75f
3:00pm 10 13 mph 1026.2mb 77f 75f
2:54pm 11 14 mph 1026.2mb 77f 75f
2:48pm 10 11 mph 1026.3mb 77f 75f
2:42pm 11 14 mph 1026.3mb 77f 75f
2:36pm 10 13 mph 1026.4mb 77f 75f
2:30pm 9 14 mph 1026.5mb 77f 75f
2:24pm 10 13 mph 1026.5mb 77f 75f
2:18pm 11 14 mph 1026.5mb 77f 75f
2:12pm 13 14 mph 1026.7mb 77f 75f
2:06pm 13 14 mph 1026.7mb 77f 75f
2:00pm 10 13 mph 1026.9mb 77f 74f
1:54pm 10 13 mph 1026.9mb 78f 75f
1:48pm 10 13 mph 1026.9mb 77f 75f
1:42pm 9 13 mph 1027mb 77f 75f
1:36pm 11 13 mph 1027mb 77f 75f
1:30pm 10 13 mph 1027.1mb 77f 74f
1:24pm 11 13 mph 1027.1mb 77f 75f
1:18pm 9 11 mph 1027.1mb 78f 75f
1:12pm 9 11 mph 1027.2mb 78f 75f
1:06pm 9 11 mph 1027.2mb 78f 75f
1:00pm 9 11 mph 1027.3mb 78f 74f
12:54pm 9 14 mph 1027.3mb 78f 76f
12:48pm 9 10 mph 1027.4mb 78f 75f
12:42pm 10 11 mph 1027.4mb 78f 74f
12:36pm 10 13 mph 1027.4mb 78f 74f
12:30pm 8 13 mph 1027.4mb 78f 75f
12:24pm 10 13 mph 1027.4mb 77f 75f
12:18pm 8 11 mph 1027.5mb 77f 75f
12:12pm 9 11 mph 1027.5mb 77f 75f
12:06pm 9 11 mph 1027.5mb 77f 75f
12:00pm 11 13 mph 1027.4mb 77f 75f
11:54am 11 14 mph 1027.5mb 77f 74f
11:48am 9 13 mph 1027.4mb 77f 75f
11:42am 10 13 mph 1027.4mb 77f 75f
11:36am 10 13 mph 1027.4mb 77f 75f
11:30am 10 11 mph 1027.4mb 77f 75f
11:24am 10 13 mph 1027.5mb 77f 75f
11:18am 9 10 mph 1027.5mb 77f 75f
11:12am 8 11 mph 1027.6mb 77f 74f
11:06am 10 11 mph 1027.6mb 77f 74f
11:00am 8 11 mph 1027.6mb 77f 74f
10:54am 9 13 mph 1027.5mb 77f 74f
10:48am 9 14 mph 1027.5mb 77f 75f
10:42am 10 13 mph 1027.5mb 77f 74f
10:36am 11 13 mph 1027.5mb 77f 74f
10:30am 10 13 mph 1027.4mb 77f 74f
10:24am 10 13 mph 1027.4mb 77f 74f
10:18am 8 11 mph 1027.4mb 77f 75f
10:12am 11 13 mph 1027.4mb 77f 75f
10:06am 9 11 mph 1027.4mb 77f 75f
10:00am 10 13 mph 1027.4mb 77f 75f
9:54am 10 11 mph 1027.5mb 77f 75f
9:48am 10 13 mph 1027.4mb 77f 75f
9:42am 11 14 mph 1027.3mb 77f 75f
9:36am 11 14 mph 1027.4mb 77f 75f
9:30am 9 11 mph 1027.4mb 77f 75f
9:24am 9 11 mph 1027.3mb 77f 75f
9:18am 10 11 mph 1027.3mb 77f 75f
9:12am 8 11 mph 1027.4mb 77f 75f
9:06am 11 13 mph 1027.3mb 77f 75f
9:00am 11 13 mph 1027.3mb 77f 74f
8:54am 10 11 mph 1027.3mb 77f 75f
8:48am 10 11 mph 1027.2mb 77f 75f
8:42am 9 13 mph 1027.2mb 77f 75f
8:36am 10 13 mph 1027.1mb 77f 74f
8:30am 9 11 mph 1027mb 77f 74f
8:24am 11 13 mph 1027mb 77f 74f
8:18am 9 11 mph 1027.1mb 77f 74f
8:12am 9 10 mph 1027.1mb 77f 74f
8:06am 10 13 mph 1027mb 77f 74f
8:00am 10 13 mph 1027mb 77f 74f
7:54am 8 10 mph 1027mb 77f 74f
7:48am 9 13 mph 1026.9mb 77f 74f
7:42am 10 14 mph 1026.9mb 77f 74f
7:36am 9 11 mph 1026.9mb 76f 74f
7:30am 10 14 mph 1026.8mb 76f 74f
7:24am 10 13 mph 1026.8mb 76f 73f
7:18am 10 13 mph 1026.7mb 77f 73f
7:12am 10 13 mph 1026.7mb 77f 73f
7:06am 9 13 mph 1026.7mb 77f 73f
7:00am 10 13 mph 1026.7mb 77f 73f
6:54am 9 13 mph 1026.6mb 77f 73f
6:48am 9 13 mph 1026.6mb 77f 73f
6:42am 10 14 mph 1026.6mb 77f 73f
6:36am 13 14 mph 1026.4mb 77f 73f
6:30am 10 11 mph 1026.4mb 77f 73f
6:24am 11 13 mph 1026.5mb 77f 73f
6:18am 10 11 mph 1026.5mb 77f 73f
6:12am 10 11 mph 1026.4mb 77f 73f
6:06am 9 13 mph 1026.3mb 77f 73f
6:00am 8 10 mph 1026.3mb 77f 73f
5:54am 8 10 mph 1026.2mb 77f 73f
5:48am 10 13 mph 1026.1mb 77f 73f
5:42am 8 10 mph 1026.1mb 77f 73f
5:36am 8 9 mph 1026mb 77f 73f
5:30am 9 11 mph 1026mb 77f 73f
5:24am 10 11 mph 1026mb 77f 73f
5:18am 7 11 mph 1026mb 77f 73f
5:12am 10 13 mph 1025.9mb 77f 73f
5:06am 10 13 mph 1025.8mb 77f 73f
5:00am 8 11 mph 1025.9mb 77f 73f
4:54am 8 10 mph 1026.1mb 77f 73f
4:48am 10 13 mph 1026.1mb 77f 73f
4:42am 9 11 mph 1026.1mb 77f 73f
4:36am 10 11 mph 1026.1mb 77f 73f
4:30am 10 11 mph 1026.1mb 77f 73f
4:24am 8 10 mph 1026.3mb 77f 73f
4:18am 10 13 mph 1026.3mb 77f 73f
4:12am 11
mph
1026.2mb 77f 73f
4:06am 9 11 mph 1026.3mb 77f 73f
4:00am 7 11 mph 1026.3mb 77f 73f
3:54am 10 13 mph 1026.2mb 77f 73f
3:48am 9 11 mph 1026.2mb 77f 73f
3:42am 9 13 mph 1026.2mb 77f 73f
3:36am 11 13 mph 1026.2mb 77f 73f
3:30am 10 13 mph 1026.2mb 77f 73f
3:24am 10 14 mph 1026.2mb 77f 73f
3:18am 11 14 mph 1026.1mb 77f 73f
3:12am 11 14 mph 1026.2mb 77f 73f
3:06am 9 13 mph 1026.2mb 77f 73f
3:00am 13 15 mph 1026.2mb 77f 73f
2:54am 11 15 mph 1026.1mb 77f 73f
2:48am 10 14 mph - 77f 73f
2:42am 13 15 mph - 77f 73f
2:36am 13 16 mph - 77f 73f
2:30am 14 15 mph 1026.2mb 77f 73f
2:24am 14 16 mph 1026.2mb 77f 73f
2:18am 13 17 mph 1026.2mb 77f 73f
2:12am 13 16 mph 1026.3mb 77f 73f
2:06am 11 15 mph 1026.4mb 77f 73f
2:00am 10 15 mph 1026.5mb 77f 73f
1:54am 14 17 mph 1026.4mb 77f 73f
1:48am 14 16 mph 1026.4mb 77f 73f
1:42am 11 14 mph 1026.5mb 78f 73f
1:36am 13 16 mph 1026.5mb 78f 74f
1:30am 11 16 mph 1026.5mb 78f 74f
1:24am 14 16 mph 1026.5mb 77f 74f
1:18am 11 16 mph 1026.5mb 78f 74f
1:12am 14 16 mph 1026.5mb 78f 74f
1:06am 14 16 mph 1026.5mb 78f 74f
1:00am 15 17 mph 1026.6mb 78f 74f
12:54am 14 17 mph 1026.6mb 78f 74f
12:48am 14 17 mph 1026.7mb 78f 74f
12:42am 15 17 mph 1026.8mb 78f 74f
12:36am 15 17 mph 1026.8mb 78f 74f
12:30am 14 17 mph 1026.9mb 78f 74f
12:24am 15 16 mph 1026.9mb 78f 74f
12:18am 14 16 mph 1027mb 78f 74f
12:12am 14 17 mph 1027.1mb 78f 74f
12:06am 14 17 mph 1027.1mb 78f 74f
12:00am 14 16 mph 1027.1mb 78f 74f
Sun 05/24 11:54pm 14 18 mph 1027mb 78f 74f
11:48pm 14 16 mph 1027mb 78f 74f
11:42pm 13 15 mph 1027.1mb 78f 74f
11:36pm 14 17 mph 1027.1mb 78f 74f
11:30pm 14 17 mph 1027.1mb 78f 74f
11:24pm 14 17 mph 1027.2mb 78f 74f
11:18pm 14 17 mph 1027.2mb 77f 74f
11:12pm 14 17 mph 1027.1mb 78f 74f
11:06pm 14 16 mph 1027.2mb 78f 74f
11:00pm 15 17 mph 1027.1mb 78f 74f
10:54pm 14 16 mph 1027.1mb 78f 74f
10:48pm 14 17 mph 1027.2mb 78f 74f
10:42pm 14 16 mph 1027.2mb 78f 74f
10:36pm 10 11 mph 1027.3mb 78f 74f
10:30pm 9 13 mph 1027.3mb 78f 74f
10:24pm 13 14 mph 1027.2mb 78f 74f
10:18pm 11 14 mph 1027.1mb 78f 74f
10:12pm 11 13 mph 1027.1mb 77f 74f
10:06pm 11 14 mph 1027mb 77f 74f
10:00pm 9 13 mph 1026.9mb 77f 74f
9:54pm 10 13 mph 1026.9mb 78f 74f
9:48pm 11 13 mph 1026.8mb 78f 74f
9:42pm 11 13 mph 1026.8mb 78f 74f
9:36pm 9 11 mph 1026.8mb 78f 74f
9:30pm 10 13 mph 1026.8mb 78f 74f
9:24pm 11 14 mph 1026.7mb 78f 74f
9:18pm 13 17 mph 1026.7mb 78f 74f
9:12pm 10 11 mph 1026.6mb 78f 74f
9:06pm 11 14 mph 1026.6mb 78f 74f
9:00pm 9 13 mph 1026.6mb 78f 74f
8:54pm 10 14 mph 1026.6mb 78f 74f
8:48pm 11 14 mph 1026.6mb 78f 74f
8:42pm 10 13 mph 1026.5mb 78f 74f
8:36pm 9 13 mph 1026.5mb 78f 74f
8:30pm 9 14 mph 1026.5mb 78f 75f
8:24pm 9 13 mph 1026.5mb 78f 75f
8:18pm 10 11 mph 1026.6mb 78f 75f
8:12pm 11 13 mph 1026.6mb 78f 75f
8:06pm 11 13 mph 1026.6mb 78f 75f
8:00pm 10 13 mph 1026.5mb 78f 75f
7:54pm 9 10 mph 1026.5mb 78f 75f
7:48pm 10 13 mph 1026.5mb 78f 75f
7:42pm 11 14 mph 1026.5mb 78f 75f
7:36pm 9 13 mph 1026.5mb 78f 75f
7:30pm 9 11 mph 1026.6mb 78f 75f
7:24pm 10 13 mph 1026.6mb 78f 75f
7:18pm 10 14 mph 1026.6mb 78f 75f
7:12pm 10 11 mph 1026.6mb 78f 75f
7:06pm 10 11 mph 1026.7mb 79f 75f
7:00pm 10 11 mph 1026.7mb 79f 76f
6:54pm 8 13 mph 1026.7mb 79f 76f
6:48pm 10 13 mph 1026.7mb 79f 75f
6:42pm 10 11 mph 1026.7mb 79f 75f
6:36pm 9 13 mph 1026.7mb 79f 76f
6:30pm 10 11 mph 1026.8mb 79f 75f
6:24pm 10 11 mph 1026.8mb 79f 75f
6:18pm 9 11 mph 1026.9mb 79f 76f
6:12pm 10
mph
1026.9mb 79f 76f
6:06pm 9 10 mph 1027mb 79f 76f
6:00pm 10 11 mph 1027mb 79f 76f
5:54pm 8 11 mph 1027.1mb 79f 76f
5:48pm 10 11 mph 1027.1mb 79f 76f
5:42pm 9 11 mph 1027.2mb 79f 76f
5:36pm 10 11 mph 1027.2mb 79f 76f
5:30pm 10 11 mph 1027.3mb 79f 76f
5:24pm 10 11 mph 1027.4mb 79f 76f
5:18pm 9 10 mph 1027.4mb 79f 76f
5:12pm 9 11 mph 1027.5mb 79f 76f
5:06pm 8 11 mph 1027.5mb 79f 76f
5:00pm 9 11 mph 1027.5mb 79f 76f
4:54pm 9 10 mph 1027.5mb 79f 76f
4:48pm 10 11 mph 1027.6mb 79f 76f
4:42pm 10 11 mph 1027.7mb 79f 76f
4:36pm 9 11 mph 1027.8mb 79f 76f
4:30pm 11 13 mph 1027.8mb 79f 76f
4:24pm 10 13 mph 1027.8mb 79f 76f
4:18pm 9 11 mph 1027.8mb 79f 76f
4:12pm 13 14 mph 1027.8mb 79f 76f
4:06pm 10 13 mph 1027.9mb 79f 76f
4:00pm 9 11 mph 1027.9mb 79f 76f
3:54pm 10 11 mph 1028mb 79f 76f
3:48pm 9 11 mph 1028mb 79f 76f
3:42pm 9 14 mph 1028.1mb 79f 76f
3:36pm 10 13 mph 1028.1mb 78f 76f
3:30pm 10 13 mph 1028.2mb 78f 76f
3:24pm 10 11 mph 1028.2mb 78f 76f
3:18pm 9 11 mph 1028.2mb 78f 76f
3:12pm 9 10 mph 1028.2mb 78f 76f
3:06pm 9 10 mph 1028.3mb 78f 76f
3:00pm 8 11 mph 1028.3mb 78f 76f
2:54pm 9 10 mph 1028.3mb 78f 76f
2:48pm 9 11 mph 1028.4mb 78f 76f
2:42pm 10 11 mph 1028.3mb 78f 76f
2:36pm 10 11 mph 1028.4mb 78f 75f
2:30pm 9 11 mph 1028.4mb 78f 75f
2:24pm 9 11 mph 1028.4mb 78f 76f
2:18pm 9 13 mph 1028.5mb 78f 75f
2:12pm 11 14 mph 1028.6mb 78f 76f
2:06pm 11 15 mph 1028.6mb 78f 75f
2:00pm 11 13 mph 1028.7mb 78f 75f
1:54pm 9 11 mph 1028.7mb 78f 76f
1:48pm 9 11 mph 1028.7mb 78f 76f
1:42pm 11 13 mph 1028.8mb 77f 76f
1:36pm 9 10 mph 1028.8mb 77f 76f
1:30pm 9 11 mph 1028.9mb 77f 76f
1:24pm 11 13 mph 1028.9mb 77f 76f
1:18pm 10 14 mph 1028.8mb 77f 76f
1:12pm 11 14 mph 1028.8mb 77f 76f
1:06pm 10 14 mph 1028.9mb 77f 75f
1:00pm 13 15 mph 1028.9mb 77f 76f
12:54pm 11 15 mph 1029mb 77f 76f
12:48pm 11 13 mph 1029.1mb 77f 75f